Weather in Sen'kino

Russia / Mari El Republic     56°40′35″N   47°54′48″E
temp.,
°C
wind,
m/s
gust,
m/s
humid.,
%
clouds,
%
prec.,
mm/h
press.,
hPa
HPBL,
m
3 march, wed
wed300:00−3wsw389784 0.1 999286
03:00−3w499692 0.6 999470
06:00−5wnw61193100 0.6 1000563
09:00−4nnw61094100 1.1 1002732
12:00−4nw6888100 0.3 1003720
15:00−5wnw6987100 0.3 1004776
18:00−6wnw5990100 0.1 1004716
21:00−6w4988100 0.2 1004707
4 march, thu
thu400:00−7wsw4995100 0.4 1001388
03:00−5wsw51194100 0.9 1000546
06:00−4sw51195100 0.1 996523
09:00−2sw61193100 0.9 994784
12:00−1sw61096100 0.6 990743
15:000w81480100 3.3 9891327
18:00−3w7158364 0.2 991773
21:00−4wnw6129361 0.3 995618
5 march, fri
fri500:00−9wnw369465 0.0 997119
03:00−12nw339679 0.0 100055
06:00−15nnw239233 0.0 100232
09:00−13n248817 0.0 1003187
12:00−8nnw24790 0.0 1004480
15:00−7wnw34830 0.0 1006538
18:00−11wsw239328 0.0 100722
21:00−12sw339635 0.0 100949
6 march, sat
sat600:00−12sw359797 0.1 1009126
03:00−13sw249894 0.1 101081
06:00−13sw239789 0.1 101048
09:00−10w239493 0.4 1010267
12:00−9nw3490100 0.1 1010513
15:00−10nw3587100 0.3 1010739
18:00−16nw359366 0.0 101082
21:00−18wnw339632 0.0 101148
7 march, sun
sun700:00−19wnw339966 0.0 101141
03:00−21w2310042 0.0 101126
06:00−22sw2310072 0.0 101035
09:00−18ssw369671 0.0 1008200
12:00−12s599389 0.0 1005435
15:00−10s7139395 0.2 1002802
18:00−9s61293100 1.1 998899
21:00−8s71393100 1.8 994756